Location: Unspecified
(42.3650°N, 71.1030°W)
Time: 16:01:52
(UTC+00:00)

Tiros 1 - Pass Details

Date: 01 July 2024
Orbit: 624 x 656 km, 48.4° (Epoch: 13 July)

Event Time Altitude Azimuth Distance (km) Brightness Sun altitude
Rises 02:00:49 0° 246° (WSW) 2,898 10.7 -14.0°
Reaches altitude 10° 02:03:08 10° 248° (WSW) 1,991 9.9 -14.3°
Maximum altitude 02:07:43 77° 335° (NNW) 642 7.2 -14.8°
Drops below altitude 10° 02:12:19 10° 62° (ENE) 1,997 9.6 -15.3°
Sets 02:14:38 0° 64° (ENE) 2,908 10.4 -15.6°
